Tracking 33750 objects as of 15-Apr-2026
HD Live streaming from Space Station
objects crossing your sky now

SL-12 R/B(2)

Track SL-12 R/B(2) now!


NORAD ID: 14195
Int'l Code: 1981-102F
Perigee: 35,767.6 km
Apogee: 35,837.2 km
Inclination: 6.8 °
Period: 1,436.5 minutes
Semi major axis: 42173 km
RCS: 2.1503 m2 (large)
Launch date: October 9, 1981
Source: Commonwealth of Independent States (former USSR) (CIS)
Launch site: TYURATAM MISSILE AND SPACE COMPLEX (TTMTR)

Note: This is a ROCKET BODY
Your satellite tracking list
Your tracking list is empty




NASA's NSSDC Master Catalog

Two Line Element Set (TLE):
1 14195U 81102F   26104.77975925 -.00000033  00000-0  00000-0 0  9993
2 14195   6.7554 294.9383 0008252 227.6859 132.0385  1.00240794122366
Source of the keplerian elements: AFSPC